Вернуться в каталог

COSMOS 1641

АктивенВоенныеLEO
NORAD 15623·PAYLOAD·🇷🇺 Russia

Запущен Mar 21, 1985 с Plesetsk Cosmodrome

Loading…

Ближайшие Пролёты (ближайшие 24 часа)

TLE

СвежийSource: Space-Track

Эпоха: Sep 14, 2026, 22:54 UTC

1 15623U 85023G   26257.95424672 -.00000027  00000-0 -72157-4 0  9993
2 15623  74.0527  76.1623 0043311 142.2628  11.8159 12.54564637899987

Отслеживайте COSMOS 1641 в реальном времени с AllMySat

Download on the App Store